Regional Weather Roundup
Issued by NWS New Orleans/Baton Rouge, LA

Home | Current Version | Previous Version | Text Only | Print | Product List | Glossary On
Versions: 1 2 3 4 5 6 7 8 9 10 11 12 13 14 15 16 17 18 19 20 21 22 23 24 25 26 27 28 29 30 31 32 33 34 35 36 37 38 39 40 41 42 43 44 45 46 47 48 49 50
000
ASUS44 KLIX 300210
RWRLIX
NEW ORLEANS REGIONAL WEATHER ROUNDUP
NATIONAL WEATHER SERVICE NEW ORLEANS LA
800 PM CST THU JAN 29 2015

NOTE: "FAIR" INDICATES FEW OR NO CLOUDS BELOW 12,000 FEET WITH NO
      SIGNIFICANT WEATHER AND/OR OBSTRUCTIONS TO VISIBILITY.
      SKY/WX - SKY CONDITION AND SIGNIFICANT WEATHER.
      TMP - AIR TEMPERATURE.     DP    - DEWPOINT TEMPERATURE.
      RH  - RELATIVE HUMIDITY.   PRES  - PRESSURE.
      HI  - HEAT INDEX.          WCI   - WIND CHILL INDEX.

*  THESE STATIONS ARE NOT NWS OR FAA STATIONS AND ARE NOT UNDER
   NWS QUALITY CONTROL.

LAZ038-040-048-061>063-065>067-069-300300-
SOUTHEAST LOUISIANA

CITY           SKY/WX    TMP DP  RH WIND       PRES   REMARKS
N.O. AUDUBON     N/A     61  58  90 MISG        N/A
N.O. INTL ARPT PTCLDY    65  55  70 SW9       30.22R
N.O. LAKEFRONT CLEAR     66  55  67 SW12      30.21R
N.O. DOWNTOWN* NOT AVBL
SLIDELL        PTCLDY    56  53  90 S3        30.19S
BATON ROUGE    PTCLDY    65  50  58 W5        30.22R
BOOTHVILLE     CLEAR     61  59  93 S7        30.23S
BELLE CHASSE   MOCLDY    65  55  70 SW7       30.22R
BOGALUSA*        N/A     58  53  83 CALM      30.21R
GALLIANO*      CLEAR     63  60  90 SW6       30.24R
NEW ROADS*       N/A     60  53  75 W3        30.22R
GONZALES*      MOCLDY    65  58  79 SW3       30.22R
HAMMOND*       PTCLDY    66  52  59 CALM      30.22R
HOUMA*         CLEAR     61  58  92 SW5       30.23R
PORT FOURCHON* CLEAR     64  63  94 SW6       30.27R

$$

MSZ070-080>082-300300-
SOUTHERN MISSISSIPPI

CITY           SKY/WX    TMP DP  RH WIND       PRES   REMARKS
MCCOMB         PTCLDY    62  49  62 W5        30.21R
GULFPORT       CLEAR     61  55  81 SW6       30.20R
BILOXI         CLEAR     58  56  93 SW9       30.20R
PASCAGOULA     PTCLDY    60  55  83 SW5       30.21R
STENNIS ARPT*  CLEAR     57  54  88 CALM      30.20R

$$

COASTAL OBSERVATIONS
LAKE AND NEARSHORE STATIONS

STATION/POSITION TIME  TEMP    WIND        PRES    WAVE
                       AIR SEA DIR/SP/G            HT/PER
                 (UTC) (F)     (DEG/KT/KT) (MB)    (FT/S)
PASCAGOULA       0200   62     210/ 11/ 14 1022.4
WAVELAND YACHT   0200   61     220/  6/  8 1021.9
GRAND ISLE       0200   65 63  230/  5/  8 1024.1
SOUTHWEST PASS   0200   62 48  190/  8/  8 1024.1
NEW CANAL        0200   67 58  230/  5/  8 1023.4
SHELL BEACH      0200   64 57  220/  8/ 10 1023.1

OFFSHORE STATIONS

STATION/POSITION TIME  TEMP    WIND        PRES    WAVE
                       AIR SEA DIR/SP/G            HT/PER
                 (UTC) (F)     (DEG/KT/KT) (MB)    (FT/S)
64 S DAUPHIN ISL 0120   68 69  210/ 12/ 14 1023.8    2/ 5

$$



USA.gov is the U.S. government's official web portal to all federal, state and local government web resources and services.